Content
SEND FEEDBACK

Daily
Averages
Monthly
Summary
United States of America

PYGA BEACH, GUAM


Home > North America > United States > Guam
Elevation: 20 feet     Latitude: 13 17N     Longitude: 144 39E

WEATHER
 
SELECT A DAY
Number of Records: 356,396;   Date Range: 1/1/95 - 12/17/14
 
SHARE

PRINT THIS DATA

[ ← Previous Day ]
WEATHER ALMANAC - FEBRUARY 16, 2013
[ Next Day → ]
[ °C ]   °F
Weather ElementAverageHighLow
Temperature77 °F81.1 °F (1:55 pm)75.2 °F (7:07 am)
Dewpoint73.4 °F75.6 °F (11:55 am)69.8 °F (12:23 am)
Humidity88.7 %100 % (8:50 am)77 % (1:55 pm)
Barometer29.77 in29.81 in (9:07 am)29.71 in (3:33 am)
Wind Speed16.6 mph24.2 mph (11:13 am)
Wind Gust33.4 mph (11:12 am)
Weather ElementAverage
Visibility8.2 mi
Wind DirectionENE (63.3 °)

Weather ElementTotal
Precipitation0.17 in
Cooling Degree Days13.2 (Base 65)
Growing Degree Days28.2 (Base 50)
Averaged from 155 records on February 16, 2013
WEATHER CONDITIONS BREAKOUT
WIND DIRECTION BREAKOUT
WEATHER BY HOUR - FEBRUARY 16, 2013
[ °C ]   °F
Local TimeTemperatureDewpointHumidityBarometerVisibilityWind DirectionWind SpeedGust SpeedPrecipitationEventsConditions
12:23 AM77.0 °F69.8 °F78 %29.77 in10.0 miENE (60°)16.1 mph25.3 mphScattered Clouds
12:39 AM77.0 °F69.8 °F78 %29.76 in10.0 miENE (60°)19.6 mphMostly Cloudy
12:45 AM77.0 °F69.8 °F78 %29.76 in10.0 miENE (70°)17.3 mphMostly Cloudy
12:55 AM77.5 °F70.7 °F79 %29.76 in10.0 miENE (60°)17.3 mph23.0 mphMostly Cloudy
1:55 AM77.2 °F71.1 °F81 %29.74 in10.0 miENE (60°)17.3 mphScattered Clouds
2:04 AM77.0 °F71.6 °F83 %29.74 in10.0 miENE (60°)18.4 mph24.2 mphMostly Cloudy
2:08 AM77.0 °F71.6 °F83 %29.73 in10.0 miENE (60°)18.4 mphScattered Clouds
2:55 AM77.4 °F71.6 °F82 %29.72 in10.0 miENE (60°)16.1 mphScattered Clouds
3:06 AM77.0 °F71.6 °F83 %29.72 in10.0 miENE (60°)19.6 mph24.2 mphMostly Cloudy
3:33 AM77.0 °F71.6 °F83 %29.71 in10.0 miENE (70°)13.8 mph21.9 mphScattered Clouds
3:34 AM77.0 °F71.6 °F83 %29.71 in10.0 miENE (60°)13.8 mph21.9 mphMostly Cloudy
3:46 AM77.0 °F71.6 °F83 %29.71 in10.0 miENE (60°)18.4 mph21.9 mphMostly Cloudy
3:50 AM77.0 °F71.6 °F83 %29.71 in10.0 miENE (60°)16.1 mphMostly Cloudy
3:55 AM77.7 °F72.5 °F84 %29.71 in10.0 miENE (60°)18.4 mphMostly Cloudy
4:04 AM77.0 °F71.6 °F83 %29.71 in10.0 miENE (60°)18.4 mph26.5 mphMostly Cloudy
4:30 AM77.0 °F71.6 °F83 %29.71 in10.0 miENE (70°)16.1 mphLight Drizzle
4:40 AM77.0 °F73.4 °F89 %29.71 in10.0 miENE (60°)16.1 mphScattered Clouds
4:42 AM77.0 °F73.4 °F89 %29.71 in10.0 miENE (60°)18.4 mphMostly Cloudy
4:52 AM77.0 °F71.6 °F83 %29.72 in10.0 miENE (60°)18.4 mph24.2 mphScattered Clouds
4:55 AM76.8 °F71.6 °F84 %29.72 in10.0 miENE (60°)18.4 mph24.2 mph0.00 inScattered Clouds
5:09 AM77.0 °F71.6 °F83 %29.72 in10.0 miENE (60°)20.7 mphMostly Cloudy
5:50 AM77.0 °F71.6 °F83 %29.73 in10.0 miENE (60°)16.1 mphOvercast
5:55 AM77.7 °F71.6 °F81 %29.73 in10.0 miENE (60°)15.0 mphOvercast
5:57 AM77.0 °F71.6 °F83 %29.73 in10.0 miENE (60°)16.1 mphOvercast
6:02 AM77.0 °F71.6 °F83 %29.73 in10.0 miENE (60°)15.0 mphOvercast
6:12 AM77.0 °F71.6 °F83 %29.74 in10.0 miENE (60°)15.0 mphRainLight Rain
6:13 AM77.0 °F71.6 °F83 %29.74 in10.0 miENE (60°)16.1 mphRainLight Rain
6:23 AM77.0 °F71.6 °F83 %29.74 in10.0 miENE (60°)16.1 mphMostly Cloudy
6:46 AM77.0 °F71.6 °F83 %29.75 in8.0 miNE (50°)23.0 mph26.5 mphRainLight Rain
6:55 AM75.9 °F73.0 °F91 %29.76 in4.0 miENE (70°)13.8 mph26.5 mph0.00 inRainLight Rain
7:07 AM75.2 °F71.6 °F89 %29.76 in5.0 miENE (70°)16.1 mphLight Drizzle
7:10 AM75.2 °F71.6 °F89 %29.77 in7.0 miENE (70°)15.0 mphLight Drizzle
7:11 AM75.2 °F71.6 °F89 %29.77 in8.0 miENE (70°)16.1 mphOvercast
7:18 AM75.2 °F73.4 °F94 %29.77 in10.0 miENE (70°)16.1 mphOvercast
7:31 AM75.2 °F73.4 °F94 %29.78 in9.0 miENE (70°)18.4 mphOvercast
7:32 AM75.2 °F73.4 °F94 %29.78 in8.0 miENE (70°)17.3 mphOvercast
7:33 AM75.2 °F73.4 °F94 %29.78 in7.0 miENE (70°)16.1 mphLight Drizzle
7:35 AM75.2 °F73.4 °F94 %29.78 in5.0 miENE (70°)16.1 mphLight Drizzle
7:39 AM75.2 °F73.4 °F94 %29.78 in4.0 miENE (70°)15.0 mphRainLight Rain
7:40 AM75.2 °F73.4 °F94 %29.78 in4.0 miENE (70°)15.0 mphRainLight Rain
7:49 AM75.2 °F73.4 °F94 %29.78 in9.0 miENE (60°)15.0 mphOvercast
7:52 AM75.2 °F73.4 °F94 %29.78 in10.0 miENE (60°)13.8 mphOvercast
7:55 AM75.2 °F73.0 °F93 %29.78 in10.0 miENE (60°)13.8 mph0.01 inMostly Cloudy
8:01 AM75.2 °F73.4 °F94 %29.79 in10.0 miENE (70°)15.0 mphMostly Cloudy
8:05 AM75.2 °F73.4 °F94 %29.79 in10.0 miENE (60°)16.1 mphMostly Cloudy
8:06 AM75.2 °F73.4 °F94 %29.79 in10.0 miENE (60°)16.1 mphMostly Cloudy
8:08 AM75.2 °F73.4 °F94 %29.79 in8.0 miENE (60°)13.8 mphLight Drizzle
8:13 AM75.2 °F73.4 °F94 %29.79 in2.5 miENE (70°)15.0 mphRainLight Rain
8:14 AM75.2 °F73.4 °F94 %29.80 in2.5 miENE (70°)17.3 mphRainLight Rain
8:15 AM75.2 °F73.4 °F94 %29.80 in2.0 miENE (70°)16.1 mphRainLight Rain
8:18 AM75.2 °F73.4 °F94 %29.80 in2.0 miENE (60°)13.8 mphRainLight Rain
8:19 AM75.2 °F73.4 °F94 %29.80 in2.0 miENE (60°)12.7 mphRainLight Rain
8:21 AM75.2 °F73.4 °F94 %29.80 in2.5 miENE (60°)11.5 mphRainLight Rain
8:22 AM75.2 °F73.4 °F94 %29.80 in3.0 miENE (60°)12.7 mphRainLight Rain
8:27 AM75.2 °F73.4 °F94 %29.80 in5.0 miNE (50°)12.7 mphRainLight Rain
8:28 AM75.2 °F73.4 °F94 %29.80 in5.0 miNE (50°)11.5 mphRainLight Rain
8:31 AM75.2 °F73.4 °F94 %29.80 in6.0 miNE (50°)11.5 mphRainLight Rain
8:33 AM75.2 °F73.4 °F94 %29.80 in7.0 miNE (50°)12.7 mphRainLight Rain
8:36 AM75.2 °F73.4 °F94 %29.80 in10.0 miENE (60°)12.7 mphOvercast
8:40 AM75.2 °F73.4 °F94 %29.80 in10.0 miENE (60°)12.7 mphOvercast
8:50 AM75.2 °F75.2 °F100 %29.80 in10.0 miENE (70°)15.0 mphMostly Cloudy
8:55 AM76.1 °F74.7 °F95 %29.80 in10.0 miENE (70°)21.9 mph26.5 mph0.01 inOvercast
8:56 AM75.2 °F75.2 °F100 %29.80 in9.0 miENE (70°)23.0 mph27.6 mphOvercast
8:57 AM75.2 °F73.4 °F94 %29.80 in7.0 miENE (70°)20.7 mph27.6 mphLight Drizzle
9:00 AM75.2 °F73.4 °F94 %29.80 in4.0 miENE (70°)18.4 mph27.6 mphRainLight Rain
9:03 AM75.2 °F73.4 °F94 %29.80 in4.0 miENE (70°)16.1 mph27.6 mphRainLight Rain
9:07 AM75.2 °F75.2 °F100 %29.81 in5.0 miENE (60°)13.8 mphRainLight Rain
9:10 AM77.0 °F75.2 °F94 %29.81 in9.0 miENE (70°)13.8 mphOvercast
9:19 AM77.0 °F75.2 °F94 %29.81 in10.0 miENE (60°)11.5 mphOvercast
9:31 AM77.0 °F75.2 °F94 %29.81 in10.0 miENE (60°)12.7 mphOvercast
9:36 AM77.0 °F75.2 °F94 %29.81 in10.0 miENE (60°)13.8 mphOvercast
9:41 AM77.0 °F73.4 °F89 %29.81 in10.0 miENE (60°)13.8 mphOvercast
9:48 AM77.0 °F73.4 °F89 %29.81 in10.0 miENE (60°)15.0 mphOvercast
9:55 AM77.0 °F74.8 °F93 %29.81 in10.0 miNE (50°)15.0 mph0.01 inOvercast
9:59 AM77.0 °F75.2 °F94 %29.81 in10.0 miNE (50°)15.0 mphOvercast
10:13 AM77.0 °F75.2 °F94 %29.81 in10.0 miNE (50°)11.5 mphOvercast
10:15 AM77.0 °F75.2 °F94 %29.81 in10.0 miNE (50°)12.7 mphOvercast
10:44 AM80.6 °F75.2 °F84 %29.80 in10.0 miNE (50°)13.8 mphMostly Cloudy
10:55 AM79.7 °F75.2 °F86 %29.80 in10.0 miNE (50°)11.5 mphMostly Cloudy
11:11 AM80.6 °F75.2 °F84 %29.79 in10.0 miENE (60°)15.0 mphMostly Cloudy
11:12 AM78.8 °F75.2 °F89 %29.79 in9.0 miENE (70°)18.4 mph33.4 mphMostly Cloudy
11:13 AM78.8 °F75.2 °F89 %29.80 in7.0 miEast (80°)24.2 mph33.4 mphRainLight Rain
11:16 AM78.8 °F73.4 °F83 %29.80 in2.5 miENE (60°)23.0 mph33.4 mphRainLight Rain
11:17 AM77.0 °F73.4 °F89 %29.80 in2.0 miENE (60°)20.7 mph33.4 mphRainLight Rain
11:18 AM77.0 °F73.4 °F89 %29.80 in1.5 miENE (70°)20.7 mph33.4 mphRainRain
11:20 AM77.0 °F73.4 °F89 %29.80 in1.2 miENE (60°)19.6 mph33.4 mphRainHeavy Rain
11:22 AM75.2 °F73.4 °F94 %29.80 in1.0 miENE (70°)17.3 mph33.4 mphRainHeavy Rain
11:26 AM75.2 °F73.4 °F94 %29.79 in1.2 miENE (60°)17.3 mph24.2 mphRainRain
11:27 AM75.2 °F73.4 °F94 %29.79 in1.5 miENE (60°)16.1 mph24.2 mphRainLight Rain
11:29 AM75.2 °F73.4 °F94 %29.79 in2.0 miENE (70°)15.0 mph24.2 mphRainLight Rain
11:31 AM75.2 °F73.4 °F94 %29.79 in2.5 miENE (70°)16.1 mph24.2 mphRainLight Rain
11:32 AM77.0 °F73.4 °F89 %29.79 in3.0 miENE (70°)15.0 mph24.2 mphRainLight Rain
11:35 AM77.0 °F75.2 °F94 %29.79 in7.0 miENE (70°)18.4 mphRainLight Rain
11:37 AM77.0 °F75.2 °F94 %29.79 in10.0 miENE (70°)16.1 mphMostly Cloudy
11:39 AM78.8 °F75.2 °F89 %29.79 in10.0 miENE (70°)15.0 mphMostly Cloudy
11:52 AM80.6 °F75.2 °F84 %29.78 in10.0 miENE (70°)15.0 mphMostly Cloudy
11:55 AM80.1 °F75.6 °F86 %29.78 in10.0 miEast (80°)16.1 mph0.12 inMostly Cloudy
12:26 PM80.6 °F75.2 °F84 %29.77 in7.0 miENE (60°)15.0 mph23.0 mphRainLight Rain
12:27 PM80.6 °F75.2 °F84 %29.76 in7.0 miNE (50°)15.0 mph23.0 mphRainLight Rain
12:31 PM78.8 °F75.2 °F89 %29.76 in4.0 miNE (40°)16.1 mph23.0 mphRainRain
12:40 PM78.8 °F75.2 °F89 %29.76 in9.0 miNE (50°)16.1 mph25.3 mphMostly Cloudy
12:55 PM80.4 °F75.6 °F85 %29.75 in10.0 miNE (50°)21.9 mph26.5 mph0.01 inOvercast
1:34 PM80.6 °F75.2 °F84 %29.74 in10.0 miENE (60°)20.7 mphMostly Cloudy
1:55 PM81.1 °F73.4 °F77 %29.74 in10.0 miENE (60°)20.7 mph28.8 mphMostly Cloudy
2:08 PM80.6 °F75.2 °F84 %29.74 in10.0 miEast (80°)19.6 mphMostly Cloudy
2:13 PM78.8 °F75.2 °F89 %29.74 in8.0 miEast (90°)23.0 mph26.5 mphMostly Cloudy
2:14 PM78.8 °F75.2 °F89 %29.74 in7.0 miEast (90°)21.9 mph26.5 mphLight Drizzle
2:22 PM77.0 °F75.2 °F94 %29.74 in2.5 miEast (90°)19.6 mph27.6 mphLight Drizzle
2:26 PM77.0 °F73.4 °F89 %29.74 in3.0 miEast (80°)15.0 mph27.6 mphRainLight Rain
2:28 PM77.0 °F73.4 °F89 %29.74 in3.0 miEast (80°)13.8 mphRainLight Rain
2:34 PM77.0 °F75.2 °F94 %29.74 in7.0 miEast (80°)11.5 mphOvercast
2:37 PM77.0 °F75.2 °F94 %29.73 in10.0 miENE (70°)12.7 mphMostly Cloudy
2:39 PM78.8 °F75.2 °F89 %29.73 in10.0 miEast (80°)12.7 mphMostly Cloudy
2:55 PM80.6 °F75.2 °F84 %29.73 in10.0 miENE (60°)15.0 mph0.01 inScattered Clouds
3:40 PM80.6 °F73.4 °F79 %29.73 in7.0 miENE (60°)15.0 mph26.5 mphRainRain
3:52 PM78.8 °F73.4 °F83 %29.74 in10.0 miEast (80°)21.9 mph27.6 mphOvercast
3:55 PM78.3 °F75.0 °F90 %29.74 in10.0 miEast (80°)21.9 mph27.6 mph0.00 inOvercast
3:56 PM78.8 °F75.2 °F89 %29.74 in10.0 miEast (80°)20.7 mph27.6 mphOvercast
3:59 PM77.0 °F75.2 °F94 %29.74 in8.0 miEast (80°)20.7 mph27.6 mphRainLight Rain
4:05 PM77.0 °F75.2 °F94 %29.74 in7.0 miEast (80°)17.3 mph27.6 mphLight Drizzle
4:09 PM77.0 °F75.2 °F94 %29.74 in9.0 miEast (90°)15.0 mph26.5 mphOvercast
4:11 PM77.0 °F75.2 °F94 %29.74 in10.0 miEast (90°)18.4 mph24.2 mphOvercast
4:14 PM77.0 °F75.2 °F94 %29.75 in10.0 miEast (80°)17.3 mph24.2 mphOvercast
4:19 PM77.0 °F75.2 °F94 %29.75 in10.0 miEast (80°)17.3 mph25.3 mphRainLight Rain
4:26 PM77.0 °F73.4 °F89 %29.75 in10.0 miEast (80°)20.7 mphRainLight Rain
4:33 PM77.0 °F73.4 °F89 %29.75 in10.0 miEast (80°)17.3 mphOvercast
4:34 PM77.0 °F73.4 °F89 %29.75 in10.0 miEast (80°)17.3 mphOvercast
4:49 PM78.8 °F73.4 °F83 %29.75 in10.0 miENE (70°)16.1 mphMostly Cloudy
4:55 PM78.8 °F73.2 °F83 %29.75 in10.0 miENE (60°)13.8 mph0.00 inMostly Cloudy
5:55 PM77.0 °F70.7 °F81 %29.76 in10.0 miNE (50°)17.3 mphMostly Cloudy
6:55 PM76.6 °F72.3 °F86 %29.77 in10.0 miENE (60°)13.8 mphPartly Cloudy
7:25 PM77.0 °F73.4 °F89 %29.78 in10.0 miNE (50°)17.3 mph25.3 mphRainLight Rain
7:34 PM77.0 °F73.4 °F89 %29.78 in10.0 miENE (60°)15.0 mph25.3 mphMostly Cloudy
7:40 PM77.0 °F73.4 °F89 %29.78 in10.0 miNE (50°)16.1 mph24.2 mphMostly Cloudy
7:45 PM77.0 °F73.4 °F89 %29.78 in10.0 miNE (50°)19.6 mph25.3 mphRainLight Rain
7:49 PM77.0 °F73.4 °F89 %29.78 in10.0 miNE (50°)17.3 mph25.3 mphRainLight Rain
7:55 PM77.0 °F74.1 °F91 %29.78 in10.0 miNE (50°)16.1 mph0.00 inScattered Clouds
8:03 PM77.0 °F73.4 °F89 %29.78 in10.0 miNE (50°)18.4 mphMostly Cloudy
8:54 PM77.0 °F71.6 °F83 %29.80 in10.0 miENE (60°)17.3 mphScattered Clouds
8:55 PM77.4 °F72.3 °F84 %29.80 in10.0 miENE (60°)16.1 mphScattered Clouds
8:57 PM77.0 °F73.4 °F89 %29.80 in10.0 miNE (50°)17.3 mphMostly Cloudy
9:01 PM77.0 °F73.4 °F89 %29.80 in10.0 miENE (60°)16.1 mph24.2 mphScattered Clouds
9:16 PM77.0 °F73.4 °F89 %29.80 in10.0 miNE (50°)17.3 mphMostly Cloudy
9:38 PM77.0 °F71.6 °F83 %29.80 in10.0 miNE (50°)13.8 mphScattered Clouds
9:43 PM77.0 °F73.4 °F89 %29.80 in10.0 miNE (50°)17.3 mphMostly Cloudy
9:55 PM77.9 °F72.7 °F84 %29.80 in10.0 miNE (50°)18.4 mphMostly Cloudy
10:17 PM77.0 °F71.6 °F83 %29.80 in10.0 miENE (60°)17.3 mphScattered Clouds
10:44 PM77.0 °F73.4 °F89 %29.80 in10.0 miNE (50°)17.3 mphMostly Cloudy
10:49 PM77.0 °F73.4 °F89 %29.80 in10.0 miNE (50°)13.8 mphMostly Cloudy
10:55 PM77.7 °F73.0 °F85 %29.80 in10.0 miENE (60°)18.4 mphMostly Cloudy
11:06 PM77.0 °F71.6 °F83 %29.80 in10.0 miNE (50°)19.6 mphMostly Cloudy
11:29 PM77.0 °F71.6 °F83 %29.80 in10.0 miNE (50°)19.6 mphMostly Cloudy
11:30 PM77.0 °F71.6 °F83 %29.80 in10.0 miNE (50°)19.6 mphMostly Cloudy
11:31 PM77.0 °F71.6 °F83 %29.80 in10.0 miNE (50°)18.4 mphScattered Clouds
11:55 PM77.5 °F72.9 °F85 %29.80 in10.0 miNE (50°)18.4 mphPartly Cloudy
Hourly data recorded from PGUA, located miles away from Pyga Beach, Guam







STORIES FROM OUR PARTNERS